Time,TemperatureF,DewpointF,PressureIn,WindDirection,WindDirectionDegrees,WindSpeedMPH,WindSpeedGustMPH,Humidity,HourlyPrecipIn,Conditions,Clouds,dailyrainin,SoftwareType,DateUTC
2013-08-09 00:12:00,64.0,-99.9,-100.00,East,100,0.0,0.0,-999,0.00,,,-99.99,,2013-08-09 05:12:00,
2013-08-09 00:33:00,63.0,-99.9,-100.00,ESE,120,0.0,0.0,-999,0.00,,,-99.99,,2013-08-09 05:33:00,
2013-08-09 00:43:00,63.0,63.0,-100.00,SE,145,0.0,1.0,99,0.00,,,-99.99,,2013-08-09 05:43:00,
2013-08-09 00:52:00,63.0,62.0,-100.00,SE,145,0.0,0.0,99,0.00,,,-99.99,,2013-08-09 05:52:00,
2013-08-09 01:11:00,62.0,62.0,-100.00,SE,135,0.0,0.0,99,0.00,,,-99.99,,2013-08-09 06:11:00,
2013-08-09 01:32:00,62.0,-99.9,-100.00,SSW,210,0.0,0.0,-999,0.00,,,-99.99,,2013-08-09 06:32:00,
2013-08-09 01:43:00,62.0,-99.9,-100.00,SSW,205,0.0,0.0,-999,0.00,,,-99.99,,2013-08-09 06:43:00,
2013-08-09 01:52:00,61.0,-99.9,-100.00,East,95,0.0,1.0,-999,0.00,,,-99.99,,2013-08-09 06:52:00,
2013-08-09 02:33:00,61.0,-99.9,-100.00,SE,125,0.0,1.0,-999,0.00,,,-99.99,,2013-08-09 07:33:00,
2013-08-09 02:43:00,62.0,62.0,-100.00,SE,125,1.0,1.0,99,0.00,,,-99.99,,2013-08-09 07:43:00,
2013-08-09 03:32:00,62.0,62.0,-100.00,SSE,160,0.0,0.0,99,0.00,,,-99.99,,2013-08-09 08:32:00,
2013-08-09 03:43:00,62.0,62.0,-100.00,SSW,195,0.0,1.0,99,0.00,,,-99.99,,2013-08-09 08:43:00,
2013-08-09 04:02:00,62.0,62.0,-100.00,SSW,195,0.0,1.0,99,0.00,,,-99.99,,2013-08-09 09:02:00,
2013-08-09 04:12:00,62.0,62.0,-100.00,SSW,195,0.0,1.0,99,0.00,,,-99.99,,2013-08-09 09:12:00,
2013-08-09 04:32:00,60.0,60.0,-100.00,SW,215,0.0,-999.0,99,0.00,,,-99.99,,2013-08-09 09:32:00,
2013-08-09 04:43:00,60.0,-99.9,-100.00,SW,215,0.0,0.0,-999,0.00,,,-99.99,,2013-08-09 09:43:00,
2013-08-09 04:52:00,59.0,59.0,-100.00,South,190,0.0,0.0,99,0.00,,,-99.99,,2013-08-09 09:52:00,
2013-08-09 05:01:00,59.0,59.0,-100.00,South,190,0.0,0.0,99,0.00,,,-99.99,,2013-08-09 10:01:00,
2013-08-09 05:22:00,60.0,60.0,-100.00,SSW,195,0.0,0.0,99,0.00,,,-99.99,,2013-08-09 10:22:00,
2013-08-09 05:32:00,60.0,60.0,-100.00,SSW,195,0.0,0.0,99,0.00,,,-99.99,,2013-08-09 10:32:00,
2013-08-09 05:43:00,60.0,60.0,-100.00,SW,215,0.0,1.0,99,0.00,,,-99.99,,2013-08-09 10:43:00,
2013-08-09 06:11:00,60.0,60.0,-100.00,South,180,0.0,0.0,99,0.00,,,-99.99,,2013-08-09 11:11:00,
2013-08-09 06:33:00,61.0,-99.9,-100.00,WSW,245,0.0,0.0,-999,0.00,,,-99.99,,2013-08-09 11:33:00,
2013-08-09 06:43:00,62.0,-99.9,-100.00,ESE,120,0.0,0.0,-999,0.00,,,-99.99,,2013-08-09 11:43:00,
2013-08-09 06:53:00,62.0,-99.9,-100.00,ESE,120,0.0,0.0,-999,0.00,,,-99.99,,2013-08-09 11:53:00,
2013-08-09 07:12:00,62.0,-99.9,-100.00,North,0,0.0,1.0,-999,0.00,,,-99.99,,2013-08-09 12:12:00,
2013-08-09 07:32:00,63.0,-99.9,-100.00,ENE,75,1.0,2.0,-999,0.00,,,-99.99,,2013-08-09 12:32:00,
2013-08-09 07:43:00,64.0,-99.9,-100.00,SSE,150,2.0,2.0,-999,0.00,,,-99.99,,2013-08-09 12:43:00,
2013-08-09 08:01:00,65.0,-99.9,-100.00,SE,140,0.0,2.0,-999,0.00,,,-99.99,,2013-08-09 13:01:00,
2013-08-09 08:12:00,66.0,-99.9,-100.00,SSE,160,1.0,1.0,-999,0.00,,,-99.99,,2013-08-09 13:12:00,
2013-08-09 08:23:00,66.0,66.0,-100.00,South,170,1.0,2.0,99,0.00,,,-99.99,,2013-08-09 13:23:00,
2013-08-09 08:32:00,67.0,67.0,-100.00,South,175,1.0,2.0,99,0.00,,,-99.99,,2013-08-09 13:32:00,
2013-08-09 08:43:00,68.0,-99.9,-100.00,South,175,1.0,2.0,-999,0.00,,,-99.99,,2013-08-09 13:43:00,
2013-08-09 08:53:00,69.0,-99.9,-100.00,SSW,205,1.0,2.0,-999,0.00,,,-99.99,,2013-08-09 13:53:00,
2013-08-09 09:02:00,69.0,-99.9,-100.00,SSW,205,1.0,2.0,-999,0.00,,,-99.99,,2013-08-09 14:02:00,
2013-08-09 09:11:00,70.0,70.0,-100.00,SSE,150,1.0,2.0,99,0.07,,,-99.99,,2013-08-09 14:11:00,
2013-08-09 09:33:00,72.0,-99.9,-100.00,WNW,300,2.0,5.0,-999,0.00,,,-99.99,,2013-08-09 14:33:00,
2013-08-09 09:43:00,72.0,72.0,-100.00,WNW,300,4.0,7.0,99,0.00,,,-99.99,,2013-08-09 14:43:00,
2013-08-09 11:11:00,75.0,-99.9,-100.00,NW,325,6.0,11.0,-999,0.00,,,-99.99,,2013-08-09 16:11:00,
2013-08-09 12:33:00,77.0,-99.9,-100.00,WNW,290,9.0,12.0,-999,0.00,,,-99.99,,2013-08-09 17:33:00,
2013-08-09 12:43:00,76.0,-99.9,-100.00,WNW,300,7.0,12.0,-999,0.00,,,-99.99,,2013-08-09 17:43:00,
2013-08-09 13:02:00,74.0,-99.9,-100.00,NNW,345,11.0,16.0,-999,0.00,,,-99.99,,2013-08-09 18:02:00,
2013-08-09 13:32:00,76.0,-99.9,-100.00,NNW,345,11.0,16.0,-999,0.00,,,-99.99,,2013-08-09 18:32:00,
2013-08-09 13:43:00,77.0,-99.9,-100.00,NNW,330,11.0,17.0,-999,0.00,,,-99.99,,2013-08-09 18:43:00,
2013-08-09 14:02:00,77.0,-99.9,-100.00,NNW,340,11.0,16.0,-999,0.00,,,-99.99,,2013-08-09 19:02:00,
2013-08-09 15:43:00,77.0,-99.9,-100.00,North,0,7.0,13.0,-999,0.00,,,-99.99,,2013-08-09 20:43:00,
2013-08-09 15:52:00,77.0,-99.9,-100.00,North,0,7.0,13.0,-999,0.00,,,-99.99,,2013-08-09 20:52:00,
2013-08-09 16:12:00,77.0,-99.9,-100.00,NW,315,7.0,13.0,-999,0.00,,,-99.99,,2013-08-09 21:12:00,
2013-08-09 16:22:00,77.0,-99.9,-100.00,NW,315,7.0,13.0,-999,0.00,,,-99.99,,2013-08-09 21:22:00,
2013-08-09 17:52:00,77.0,-99.9,-100.00,NW,325,10.0,13.0,-999,0.00,,,-99.99,,2013-08-09 22:52:00,
2013-08-09 18:22:00,75.0,-99.9,-100.00,NNW,345,8.0,12.0,-999,0.00,,,-99.99,,2013-08-09 23:22:00,
2013-08-09 19:11:00,73.0,-99.9,-100.00,NW,325,6.0,8.0,-999,0.00,,,-99.99,,2013-08-10 00:11:00,
2013-08-09 19:22:00,72.0,-99.9,-100.00,NNW,340,4.0,7.0,-999,0.00,,,-99.99,,2013-08-10 00:22:00,
2013-08-09 19:33:00,72.0,-99.9,-100.00,NNW,335,3.0,6.0,-999,0.00,,,-99.99,,2013-08-10 00:33:00,
2013-08-09 19:53:00,70.0,-99.9,-100.00,NNW,330,4.0,4.0,-999,0.00,,,-99.99,,2013-08-10 00:53:00,
2013-08-09 20:02:00,70.0,-99.9,-100.00,NNW,330,4.0,4.0,-999,0.00,,,-99.99,,2013-08-10 01:02:00,
2013-08-09 20:11:00,70.0,-99.9,-100.00,NNW,340,4.0,4.0,-999,0.00,,,-99.99,,2013-08-10 01:11:00,
2013-08-09 20:32:00,69.0,-99.9,-100.00,SSW,205,1.0,1.0,-999,0.00,,,-99.99,,2013-08-10 01:32:00,
2013-08-09 20:42:00,68.0,68.0,-100.00,ENE,70,0.0,1.0,99,0.00,,,-99.99,,2013-08-10 01:42:00,
2013-08-09 21:03:00,67.0,-99.9,-100.00,ENE,70,0.0,0.0,-999,0.00,,,-99.99,,2013-08-10 02:03:00,
2013-08-09 21:11:00,66.0,-99.9,-100.00,ENE,70,0.0,0.0,-999,0.00,,,-99.99,,2013-08-10 02:11:00,
2013-08-09 21:22:00,66.0,-99.9,-100.00,ENE,70,0.0,0.0,-999,0.00,,,-99.99,,2013-08-10 02:22:00,
2013-08-09 21:32:00,65.0,-99.9,-100.00,East,80,0.0,0.0,-999,0.00,,,-99.99,,2013-08-10 02:32:00,
2013-08-09 21:42:00,64.0,-99.9,-100.00,North,350,1.0,1.0,-999,0.00,,,-99.99,,2013-08-10 02:42:00,
2013-08-09 21:52:00,64.0,-99.9,-100.00,North,350,1.0,1.0,-999,0.00,,,-99.99,,2013-08-10 02:52:00,
2013-08-09 22:21:00,65.0,65.0,-100.00,NW,320,2.0,2.0,99,0.00,,,-99.99,,2013-08-10 03:21:00,
2013-08-09 22:32:00,65.0,65.0,-100.00,NW,325,1.0,2.0,99,0.00,,,-99.99,,2013-08-10 03:32:00,
2013-08-09 22:42:00,65.0,-99.9,-100.00,NNW,340,3.0,4.0,-999,0.00,,,-99.99,,2013-08-10 03:42:00,
2013-08-09 22:52:00,65.0,-99.9,-100.00,NNW,340,3.0,4.0,-999,0.00,,,-99.99,,2013-08-10 03:52:00,
2013-08-09 23:12:00,61.0,61.0,-100.00,NNE,15,0.0,1.0,99,0.00,,,-99.99,,2013-08-10 04:12:00,
2013-08-09 23:22:00,61.0,61.0,-100.00,NNE,15,0.0,1.0,99,0.00,,,-99.99,,2013-08-10 04:22:00,
2013-08-09 23:32:00,60.0,-99.9,-100.00,NNW,335,1.0,2.0,-999,0.00,,,-99.99,,2013-08-10 04:32:00,
2013-08-09 23:43:00,61.0,61.0,-100.00,NW,320,2.0,3.0,99,0.00,,,-99.99,,2013-08-10 04:43:00,